TimeCDT,TemperatureF,Dew PointF,Humidity,Sea Level PressureIn,VisibilityMPH,Wind Direction,Wind SpeedMPH,Gust SpeedMPH,PrecipitationIn,Events,Conditions,WindDirDegrees,DateUTC
12:40 AM,84.2,57.2,40,29.97,10.0,WNW,9.2,-,N/A,Thunderstorm,Scattered Clouds,300,2013-07-09 05:40:00
12:53 AM,82.9,59.0,44,29.93,10.0,West,9.2,21.9,N/A,Thunderstorm,Scattered Clouds,260,2013-07-09 05:53:00
1:01 AM,80.6,60.8,51,30.02,9.0,WNW,12.7,-,0.00,Rain,Light Rain,290,2013-07-09 06:01:00
1:31 AM,78.8,62.6,57,30.01,10.0,SSW,4.6,-,0.01,Thunderstorm,Mostly Cloudy,200,2013-07-09 06:31:00
1:46 AM,78.8,62.6,57,30.02,10.0,SSW,6.9,-,0.01,,Mostly Cloudy,210,2013-07-09 06:46:00
1:53 AM,80.1,63.0,56,29.95,10.0,South,8.1,-,0.01,Rain,Light Rain,190,2013-07-09 06:53:00
2:20 AM,78.8,62.6,57,29.98,10.0,South,12.7,23.0,0.00,Thunderstorm,Partly Cloudy,180,2013-07-09 07:20:00
2:53 AM,73.9,64.9,73,29.86,5.0,SSE,12.7,19.6,0.14,Rain-Thunderstorm,Thunderstorms and Rain,150,2013-07-09 07:53:00
3:12 AM,73.4,64.4,73,29.91,10.0,SSE,13.8,-,0.00,,Scattered Clouds,160,2013-07-09 08:12:00
3:53 AM,73.9,63.0,68,29.82,10.0,SSE,12.7,18.4,0.00,,Clear,160,2013-07-09 08:53:00
4:53 AM,75.0,62.1,64,29.83,10.0,South,10.4,-,N/A,,Clear,190,2013-07-09 09:53:00
5:53 AM,73.9,64.0,71,29.82,10.0,South,11.5,-,N/A,,Clear,180,2013-07-09 10:53:00
6:53 AM,73.9,64.9,73,29.83,10.0,South,6.9,-,N/A,,Clear,180,2013-07-09 11:53:00
7:53 AM,77.0,66.0,69,29.85,10.0,SSW,9.2,-,N/A,,Clear,200,2013-07-09 12:53:00
8:53 AM,80.1,66.9,64,29.90,10.0,NNW,10.4,-,N/A,,Clear,340,2013-07-09 13:53:00
9:53 AM,80.1,66.9,64,29.89,10.0,North,5.8,-,N/A,,Clear,10,2013-07-09 14:53:00
10:53 AM,82.9,66.0,56,29.90,10.0,North,6.9,-,N/A,,Clear,350,2013-07-09 15:53:00
11:53 AM,84.9,66.0,53,29.90,10.0,Calm,Calm,-,N/A,,Clear,0,2013-07-09 16:53:00
12:53 PM,87.1,66.0,49,29.90,10.0,Variable,4.6,-,N/A,,Clear,0,2013-07-09 17:53:00
1:53 PM,89.1,66.9,48,29.90,10.0,Variable,5.8,-,N/A,,Clear,0,2013-07-09 18:53:00
2:53 PM,90.0,66.9,46,29.90,10.0,Calm,Calm,-,N/A,,Clear,0,2013-07-09 19:53:00
3:53 PM,91.9,68.0,45,29.89,10.0,Variable,3.5,-,N/A,,Clear,0,2013-07-09 20:53:00
4:53 PM,93.0,66.9,42,29.88,10.0,NE,5.8,-,N/A,,Clear,50,2013-07-09 21:53:00
5:53 PM,93.0,66.9,42,29.87,10.0,East,8.1,-,N/A,,Clear,80,2013-07-09 22:53:00
6:53 PM,91.0,68.0,47,29.89,10.0,ENE,8.1,-,N/A,,Clear,70,2013-07-09 23:53:00
7:53 PM,87.1,70.0,57,29.92,10.0,NNE,5.8,-,N/A,,Clear,20,2013-07-10 00:53:00
8:53 PM,86.0,71.1,61,29.90,10.0,NNE,10.4,-,N/A,,Clear,20,2013-07-10 01:53:00
9:53 PM,81.0,69.1,67,29.93,10.0,NNE,15.0,-,N/A,,Clear,30,2013-07-10 02:53:00
10:53 PM,79.0,69.1,72,29.96,10.0,NNE,10.4,-,N/A,,Clear,30,2013-07-10 03:53:00
11:53 PM,75.0,69.1,82,29.98,10.0,NNE,5.8,-,N/A,,Clear,30,2013-07-10 04:53:00